EW5466 Weather Reports


Display with metric or nautical units.
time (UTC)temp
F
wind
direction
speed
MPH
gust
MPH
rain 1hr
in
rain 24hr
in
rain mn
in
humidity
%
barometer
mb
20180821061925 68 123 7.0 16.0 0.00 0.00 0.00 90 1014.7
20180821061425 68 109 4.0 16.0 0.00 0.00 0.00 89 1014.7
20180821060925 68 111 3.0 13.0 0.00 0.00 0.00 90 1014.7
20180821060425 67 111 7.0 13.0 0.00 0.00 0.00 89 1014.7
20180821055924 67 98 10.0 13.0 0.00 0.00 0.00 89 1014.9
20180821055423 67 108 8.0 13.0 0.00 0.00 0.00 89 1014.9
20180821054924 67 98 7.0 12.0 0.00 0.00 0.00 89 1014.9
20180821054424 67 104 7.0 12.0 0.00 0.00 0.00 89 1015.1
20180821053923 67 100 7.0 12.0 0.00 0.00 0.00 89 1015.1
20180821053422 67 95 4.0 12.0 0.00 0.00 0.00 89 1015.1
20180821052926 67 94 2.0 12.0 0.00 0.00 0.00 89 1015.3
20180821052419 67 90 2.0 13.0 0.00 0.00 0.00 89 1015.3
20180821051930 67 102 4.0 13.0 0.00 0.00 0.00 89 1015.3
20180821051423 67 104 6.0 13.0 0.00 0.00 0.00 89 1015.4
20180821050917 67 103 3.0 13.0 0.00 0.00 0.00 89 1015.4
20180821050418 67 104 0.0 10.0 0.00 0.00 0.00 89 1015.4
20180821045923 67 100 1.0 13.0 0.00 0.00 0.00 90 1015.7
20180821045421 67 94 2.0 13.0 0.00 0.00 0.00 90 1015.7
20180821044916 67 106 1.0 10.0 0.00 0.00 0.00 90 1015.7
20180821044416 67 102 1.0 11.0 0.00 0.00 0.00 90 1015.7
20180821043919 67 102 1.0 11.0 0.00 0.00 0.00 90 1015.7
20180821043414 67 98 1.0 11.0 0.00 0.00 0.00 90 1015.7
20180821042914 67 101 2.0 11.0 0.00 0.00 0.00 89 1015.7
20180821042413 67 104 1.0 11.0 0.00 0.00 0.00 90 1015.7
20180821041911 67 95 1.0 10.0 0.00 0.00 0.00 89 1015.7
20180821041410 67 97 1.0 10.0 0.00 0.00 0.00 89 1015.8
20180821040909 67 96 1.0 10.0 0.00 0.00 0.00 89 1015.8
20180821040413 67 99 1.0 10.0 0.00 0.00 0.00 89 1015.8
20180821035908 67 96 0.0 1.0 0.00 0.00 0.00 89 1016.2
20180821035407 67 96 0.0 0.0 0.00 0.00 0.00 89 1016.2
20180821034907 67 100 0.0 0.0 0.00 0.00 0.00 89 1016.2
20180821034407 67 102 0.0 10.0 0.00 0.00 0.00 89 1016.2
20180821033908 67 99 2.0 10.0 0.00 0.00 0.00 89 1016.2
20180821033408 67 93 3.0 10.0 0.00 0.00 0.00 89 1016.2
20180821032905 67 97 4.0 12.0 0.00 0.00 0.00 89 1016.3
20180821032405 67 106 2.0 12.0 0.00 0.00 0.00 89 1016.3
20180821031905 67 104 1.0 11.0 0.00 0.00 0.00 89 1016.3
20180821031403 67 104 2.0 12.0 0.00 0.00 0.00 89 1016.3
20180821030903 67 95 4.0 12.0 0.00 0.00 0.00 89 1016.3
20180821030403 67 113 4.0 13.0 0.00 0.00 0.00 89 1016.3
20180821025904 67 105 3.0 13.0 0.00 0.00 0.00 89 1016.6
20180821025403 67 100 1.0 12.0 0.00 0.00 0.00 89 1016.6
20180821024903 67 101 0.0 0.0 0.00 0.00 0.00 88 1016.6
20180821024401 67 102 0.0 3.0 0.00 0.00 0.00 88 1016.6
20180821023859 67 100 0.0 3.0 0.00 0.00 0.00 88 1016.6
20180821023400 67 98 4.0 13.0 0.00 0.00 0.00 88 1016.6
20180821022858 68 94 9.0 13.0 0.00 0.00 0.00 88 1016.8
20180821022357 68 98 7.0 13.0 0.00 0.00 0.00 87 1016.8
20180821021853 68 100 4.0 12.0 0.00 0.00 0.00 87 1016.8
20180821021355 68 107 4.0 12.0 0.00 0.00 0.00 87 1017.2
20180821020853 68 100 6.0 12.0 0.00 0.00 0.00 87 1017.2
20180821020351 68 111 5.0 11.0 0.00 0.00 0.00 87 1017.2
20180821015851 68 117 2.0 10.0 0.00 0.00 0.00 87 1017.0
20180821015351 68 109 1.0 11.0 0.00 0.00 0.00 87 1017.0
20180821014852 68 101 1.0 11.0 0.00 0.00 0.00 87 1017.0
20180821014351 68 107 2.0 11.0 0.00 0.00 0.00 87 1016.9
20180821013852 68 114 4.0 11.0 0.00 0.00 0.00 87 1016.9
20180821013352 68 99 6.0 14.0 0.00 0.00 0.00 87 1016.9
20180821012850 68 101 6.0 14.0 0.00 0.00 0.00 87 1017.0
20180821012350 68 90 4.0 12.0 0.00 0.00 0.00 87 1017.0
20180821011854 68 94 2.0 10.0 0.00 0.00 0.00 86 1017.0
20180821011349 68 101 0.0 10.0 0.00 0.00 0.00 86 1016.9
20180821010849 68 103 0.0 8.0 0.00 0.00 0.00 86 1016.9
20180821010350 68 96 0.0 0.0 0.00 0.00 0.00 85 1016.9
20180821005847 69 115 0.0 7.0 0.00 0.00 0.00 85 1016.7
20180821005346 69 113 1.0 9.0 0.00 0.00 0.00 84 1016.7
20180821004851 69 108 2.0 9.0 0.00 0.00 0.00 84 1016.7
20180821004345 69 107 1.0 10.0 0.00 0.00 0.00 84 1016.7
20180821003843 69 115 1.0 10.0 0.00 0.00 0.00 84 1016.7
20180821003343 69 109 1.0 9.0 0.00 0.00 0.00 84 1016.7
20180821002843 69 102 0.0 9.0 0.00 0.00 0.00 83 1016.6
20180821002343 69 97 1.0 9.0 0.00 0.00 0.00 83 1016.6
20180821001841 70 90 2.0 9.0 0.00 0.00 0.00 82 1016.6
20180821001340 70 86 2.0 9.0 0.00 0.00 0.00 82 1016.7
20180821000839 70 90 1.0 9.0 0.00 0.00 0.00 81 1016.7
20180821000337 71 94 0.0 9.0 0.00 0.00 0.00 81 1016.7
20180820235835 71 96 0.0 7.0 0.00 0.00 0.00 80 1016.7
20180820235335 71 95 0.0 7.0 0.00 0.00 0.00 80 1016.7
20180820234830 71 94 0.0 7.0 0.00 0.00 0.00 79 1016.7
20180820234329 71 98 1.0 11.0 0.00 0.00 0.00 79 1016.7
20180820233829 72 102 2.0 11.0 0.00 0.00 0.00 79 1016.7
20180820233325 72 93 1.0 10.0 0.00 0.00 0.00 78 1016.7
20180820232825 72 109 1.0 10.0 0.00 0.00 0.00 77 1016.7
20180820232326 73 109 3.0 10.0 0.00 0.00 0.00 77 1016.7
20180820231825 73 102 2.0 9.0 0.00 0.00 0.00 76 1016.7
20180820231330 73 98 1.0 10.0 0.00 0.00 0.00 76 1016.7
20180820230825 74 94 1.0 10.0 0.00 0.00 0.00 75 1016.7
20180820230323 74 94 1.0 8.0 0.00 0.00 0.00 74 1016.7
20180820225823 74 107 4.0 12.0 0.00 0.00 0.00 73 1016.7
20180820225321 75 101 5.0 12.0 0.00 0.00 0.00 74 1016.7
20180820224824 75 107 1.0 11.0 0.00 0.00 0.00 74 1016.7
20180820224319 75 113 2.0 11.0 0.00 0.00 0.00 73 1017.0
20180820223819 75 106 2.0 11.0 0.00 0.00 0.00 73 1017.0
20180820223313 75 102 1.0 10.0 0.00 0.00 0.00 73 1017.0
20180820222811 75 113 2.0 10.0 0.00 0.00 0.00 72 1017.1
20180820222311 75 112 1.0 10.0 0.00 0.00 0.00 74 1017.1
20180820221809 75 115 0.0 10.0 0.00 0.00 0.00 74 1017.1
20180820221309 75 119 1.0 7.0 0.00 0.00 0.00 73 1017.2
20180820220803 75 114 1.0 9.0 0.00 0.00 0.00 72 1017.2
20180820220302 75 123 2.0 10.0 0.00 0.00 0.00 72 1017.2
20180820215759 75 109 2.0 10.0 0.00 0.00 0.00 73 1017.2
20180820215300 75 115 1.0 9.0 0.00 0.00 0.00 73 1017.2
20180820214759 75 120 0.0 11.0 0.00 0.00 0.00 74 1017.2
20180820214259 75 113 0.0 11.0 0.00 0.00 0.00 72 1017.2
20180820213759 75 123 1.0 11.0 0.00 0.00 0.00 72 1017.2
20180820213259 75 144 1.0 11.0 0.00 0.00 0.00 72 1017.2
20180820212759 75 130 1.0 9.0 0.00 0.00 0.00 72 1017.0
20180820212259 75 119 0.0 2.0 0.00 0.00 0.00 72 1017.0
20180820211800 75 111 2.0 11.0 0.00 0.00 0.00 73 1017.0
20180820211300 75 104 4.0 11.0 0.00 0.00 0.00 71 1017.1
20180820210800 75 110 2.0 11.0 0.00 0.00 0.00 71 1017.1
20180820210259 75 99 1.0 11.0 0.00 0.00 0.00 71 1017.1
20180820205759 75 129 1.0 9.0 0.00 0.00 0.00 71 1017.3
20180820205257 76 128 2.0 9.0 0.00 0.00 0.00 68 1017.3
20180820204757 76 129 2.0 10.0 0.00 0.00 0.00 69 1017.3
20180820204257 76 129 1.0 10.0 0.00 0.00 0.00 68 1017.5
20180820203759 76 145 1.0 9.0 0.00 0.00 0.00 70 1017.5
20180820203257 76 134 2.0 11.0 0.00 0.00 0.00 68 1017.5
20180820202757 76 119 4.0 12.0 0.00 0.00 0.00 69 1017.6
20180820202257 77 146 4.0 12.0 0.00 0.00 0.00 68 1017.6
20180820201757 77 145 3.0 11.0 0.00 0.00 0.00 65 1017.6
20180820201257 77 105 5.0 12.0 0.00 0.00 0.00 68 1017.5
20180820200757 77 118 5.0 13.0 0.00 0.00 0.00 69 1017.5
20180820200257 77 121 3.0 13.0 0.00 0.00 0.00 68 1017.5
20180820195758 77 121 2.0 16.0 0.00 0.00 0.00 67 1017.5
20180820195303 78 121 2.0 16.0 0.00 0.00 0.00 66 1017.5
20180820194757 78 90 5.0 13.0 0.00 0.00 0.00 67 1017.5
20180820194257 78 115 9.0 15.0 0.00 0.00 0.00 69 1017.7
20180820193757 78 121 6.0 15.0 0.00 0.00 0.00 67 1017.7
20180820193257 77 119 3.0 14.0 0.00 0.00 0.00 70 1017.7
20180820192758 76 127 2.0 11.0 0.00 0.00 0.00 69 1017.6
20180820192257 76 129 5.0 13.0 0.00 0.00 0.00 69 1017.6
20180820191757 76 121 6.0 13.0 0.00 0.00 0.00 69 1017.6
20180820191258 76 120 6.0 14.0 0.00 0.00 0.00 70 1017.7
20180820190757 76 127 10.0 14.0 0.00 0.00 0.00 70 1017.7
20180820190256 76 105 9.0 14.0 0.00 0.00 0.00 69 1017.7
20180820185756 76 113 10.0 14.0 0.00 0.00 0.00 68 1017.9
20180820185256 76 123 11.0 14.0 0.00 0.00 0.00 67 1017.9
20180820184755 77 121 10.0 15.0 0.00 0.00 0.00 69 1017.9
20180820184255 77 123 5.0 15.0 0.00 0.00 0.00 68 1018.3
20180820183755 77 127 2.0 13.0 0.00 0.00 0.00 68 1018.3
20180820183255 77 117 5.0 14.0 0.00 0.00 0.00 69 1018.3
20180820182755 77 98 8.0 14.0 0.00 0.00 0.00 69 1018.3
20180820182255 77 117 6.0 14.0 0.00 0.00 0.00 69 1018.3
20180820181755 76 104 2.0 13.0 0.00 0.00 0.00 72 1018.3
20180820181255 76 100 0.0 9.0 0.00 0.00 0.00 69 1018.3
20180820180755 75 90 4.0 15.0 0.00 0.00 0.00 73 1018.3
20180820180255 75 111 7.0 15.0 0.00 0.00 0.00 71 1018.3
20180820175755 75 100 5.0 14.0 0.00 0.00 0.00 72 1018.6
20180820175300 75 111 4.0 14.0 0.00 0.00 0.00 74 1018.6
20180820174755 75 113 3.0 13.0 0.00 0.00 0.00 72 1018.6
20180820174255 75 109 1.0 12.0 0.00 0.00 0.00 73 1018.7
20180820173800 75 124 4.0 14.0 0.00 0.00 0.00 74 1018.7
20180820173255 75 115 5.0 15.0 0.00 0.00 0.00 72 1018.7
20180820172755 75 109 3.0 15.0 0.00 0.00 0.00 72 1018.9
20180820172255 75 120 3.0 12.0 0.00 0.00 0.00 72 1018.9
20180820171755 75 133 3.0 14.0 0.00 0.00 0.00 72 1018.9
20180820171256 75 111 2.0 14.0 0.00 0.00 0.00 73 1018.9
20180820170255 74 105 3.0 12.0 0.00 0.00 0.00 74 1018.9
20180820165755 74 127 3.0 12.0 0.00 0.00 0.00 74 1019.1
20180820165255 74 133 3.0 12.0 0.00 0.00 0.00 75 1019.1
20180820164755 74 115 1.0 10.0 0.00 0.00 0.00 75 1019.1
20180820164256 74 128 1.0 10.0 0.00 0.00 0.00 74 1019.1
20180820163755 74 94 3.0 12.0 0.00 0.00 0.00 74 1019.1
20180820163255 74 127 6.0 14.0 0.00 0.00 0.00 75 1019.1
20180820162756 74 107 5.0 14.0 0.00 0.00 0.00 77 1019.2
20180820162254 74 99 5.0 12.0 0.00 0.00 0.00 76 1019.2
20180820161810 73 98 5.0 13.0 0.00 0.00 0.00 75 1019.4
20180820161754 73 121 7.0 13.0 0.00 0.00 0.00 76 1019.2
20180820160755 73 120 5.0 14.0 0.00 0.00 0.00 76 1019.4
20180820160255 73 113 6.0 14.0 0.00 0.00 0.00 75 1019.4
20180820155755 74 116 4.0 14.0 0.00 0.00 0.00 75 1019.4
20180820155255 74 115 2.0 10.0 0.00 0.00 0.00 76 1019.4
20180820154755 73 128 0.0 0.0 0.00 0.00 0.00 79 1019.4
20180820154255 73 101 0.0 0.0 0.00 0.00 0.00 81 1019.5
20180820153755 72 133 1.0 12.0 0.00 0.00 0.00 80 1019.5
20180820153255 72 122 1.0 12.0 0.00 0.00 0.00 80 1019.5
20180820152754 72 107 0.0 2.0 0.00 0.00 0.00 80 1019.8
20180820152255 72 135 0.0 2.0 0.00 0.00 0.00 81 1019.8
20180820151755 71 97 1.0 13.0 0.00 0.00 0.00 82 1019.8
20180820151255 71 99 2.0 13.0 0.00 0.00 0.00 82 1019.9
20180820150755 71 114 6.0 13.0 0.00 0.00 0.00 81 1019.9
20180820150254 71 100 5.0 13.0 0.00 0.00 0.00 82 1019.9
20180820145753 71 100 3.0 12.0 0.00 0.00 0.00 82 1019.9
20180820145253 71 113 3.0 11.0 0.00 0.00 0.00 83 1019.9
20180820144752 70 105 0.0 7.0 0.00 0.00 0.00 83 1019.9
20180820144253 70 111 0.0 1.0 0.00 0.00 0.00 83 1020.0
20180820143753 70 129 0.0 1.0 0.00 0.00 0.00 83 1020.0
20180820143253 70 121 0.0 7.0 0.00 0.00 0.00 86 1020.0
20180820142752 69 100 1.0 9.0 0.00 0.00 0.00 87 1020.0
20180820142253 69 94 2.0 9.0 0.00 0.00 0.00 86 1020.0
20180820141753 69 93 2.0 9.0 0.00 0.00 0.00 87 1020.0
20180820141253 69 94 1.0 8.0 0.00 0.00 0.00 88 1020.0
20180820140753 68 101 0.0 1.0 0.00 0.00 0.00 90 1020.0
20180820140253 67 98 0.0 1.0 0.00 0.00 0.00 90 1020.0
20180820135753 67 102 0.0 1.0 0.00 0.00 0.00 92 1019.9
20180820135253 67 96 0.0 0.0 0.00 0.00 0.00 94 1019.9
20180820134753 66 97 0.0 0.0 0.00 0.00 0.00 94 1019.9
20180820134251 66 97 0.0 7.0 0.00 0.00 0.00 94 1019.9
20180820133749 65 93 4.0 9.0 0.00 0.00 0.00 95 1019.9
20180820133247 65 94 6.0 9.0 0.00 0.00 0.00 95 1019.9
20180820132745 65 90 5.0 9.0 0.00 0.00 0.00 95 1019.9
20180820132244 64 90 5.0 8.0 0.00 0.00 0.00 95 1019.9
20180820131745 64 87 5.0 8.0 0.00 0.00 0.00 95 1019.9
20180820131244 64 97 4.0 7.0 0.00 0.00 0.00 96 1019.9
20180820130745 63 100 4.0 6.0 0.00 0.00 0.00 95 1019.9
20180820130244 63 94 4.0 7.0 0.00 0.00 0.00 96 1019.9
20180820125743 63 99 4.0 7.0 0.00 0.00 0.00 95 1019.9
20180820125242 62 97 4.0 7.0 0.00 0.00 0.00 95 1019.9
20180820124742 62 104 4.0 7.0 0.00 0.00 0.00 95 1019.9
20180820124243 62 90 3.0 6.0 0.00 0.00 0.00 95 1019.9
20180820123742 62 88 1.0 6.0 0.00 0.00 0.00 95 1019.9
20180820123243 62 87 0.0 2.0 0.00 0.00 0.00 95 1019.9
20180820122743 61 92 2.0 6.0 0.00 0.00 0.00 95 1019.9
20180820122240 61 95 3.0 6.0 0.00 0.00 0.00 95 1019.9
20180820121741 61 100 4.0 6.0 0.00 0.00 0.00 95 1019.9
20180820121241 61 94 4.0 6.0 0.00 0.00 0.00 95 1019.9
20180820120735 60 90 3.0 7.0 0.00 0.00 0.00 95 1019.9
20180820120235 60 92 3.0 7.0 0.00 0.00 0.00 95 1019.9
20180820115735 60 95 4.0 7.0 0.00 0.00 0.00 95 1019.8
20180820115235 60 96 5.0 9.0 0.00 0.00 0.00 95 1019.8
20180820114734 60 90 5.0 9.0 0.00 0.00 0.00 95 1019.8
20180820114233 60 91 6.0 9.0 0.00 0.00 0.00 95 1019.7
20180820113732 59 91 7.0 9.0 0.00 0.00 0.00 95 1019.7
20180820113232 59 89 6.0 9.0 0.00 0.00 0.00 95 1019.7
20180820112733 59 94 6.0 9.0 0.00 0.00 0.00 95 1019.9
20180820112232 59 90 4.0 7.0 0.00 0.00 0.00 95 1019.9
20180820111729 58 90 2.0 7.0 0.00 0.00 0.00 95 1019.9
20180820111229 58 90 2.0 6.0 0.00 0.00 0.00 95 1019.9
20180820110727 58 88 3.0 6.0 0.00 0.00 0.00 95 1019.9
20180820110225 58 90 3.0 6.0 0.00 0.00 0.00 95 1019.7
20180820105724 58 88 3.0 7.0 0.00 0.00 0.00 95 1019.7
20180820105223 57 87 3.0 7.0 0.00 0.00 0.00 95 1019.7
20180820104719 57 82 3.0 7.0 0.00 0.00 0.00 95 1019.4
20180820104218 56 80 2.0 7.0 0.00 0.00 0.00 94 1019.4
20180820103715 56 77 0.0 4.0 0.00 0.00 0.00 94 1019.4
20180820103215 56 71 0.0 0.0 0.00 0.00 0.00 94 1019.2
20180820102715 56 71 0.0 0.0 0.00 0.00 0.00 94 1019.2
20180820102218 56 71 0.0 0.0 0.00 0.00 0.00 94 1019.2
20180820101714 56 71 0.0 5.0 0.00 0.00 0.00 94 1019.3
20180820101215 56 71 2.0 8.0 0.00 0.00 0.00 94 1019.3
20180820100713 56 79 3.0 8.0 0.00 0.00 0.00 94 1019.3
20180820100212 56 79 3.0 7.0 0.00 0.00 0.00 94 1019.4
20180820095711 56 81 1.0 7.0 0.00 0.00 0.00 94 1019.4
20180820095211 56 82 0.0 6.0 0.00 0.00 0.00 94 1019.4
20180820094711 56 80 0.0 5.0 0.00 0.00 0.00 94 1019.4
20180820094211 56 80 0.0 5.0 0.00 0.00 0.00 94 1019.4
20180820093711 56 79 0.0 5.0 0.00 0.00 0.00 94 1019.4
20180820093208 56 79 0.0 5.0 0.00 0.00 0.00 94 1019.4
20180820092707 56 78 0.0 0.0 0.00 0.00 0.00 94 1019.4
20180820092207 56 78 0.0 0.0 0.00 0.00 0.00 94 1019.4
20180820091707 56 78 0.0 0.0 0.00 0.00 0.00 93 1019.3
20180820091204 56 78 0.0 4.0 0.00 0.00 0.00 93 1019.3
20180820090704 56 78 0.0 4.0 0.00 0.00 0.00 93 1019.3
20180820090204 56 78 0.0 5.0 0.00 0.00 0.00 93 1019.3
20180820085712 56 78 0.0 6.0 0.00 0.00 0.00 93 1019.3
20180820085202 56 82 0.0 6.0 0.00 0.00 0.00 93 1019.3
20180820084703 56 109 0.0 0.0 0.00 0.00 0.00 93 1019.4
20180820084202 56 109 0.0 0.0 0.00 0.00 0.00 93 1019.4
20180820083700 57 121 0.0 0.0 0.00 0.00 0.00 93 1019.4
20180820083200 57 121 0.0 0.0 0.00 0.00 0.00 93 1019.4
20180820082658 57 121 0.0 0.0 0.00 0.00 0.00 93 1019.4
20180820082158 57 121 0.0 0.0 0.00 0.00 0.00 93 1019.4
20180820081657 57 121 0.0 0.0 0.00 0.00 0.00 93 1019.4
20180820081157 57 121 0.0 0.0 0.00 0.00 0.00 93 1019.4
20180820080656 57 121 0.0 0.0 0.00 0.00 0.00 93 1019.4
20180820080155 57 121 0.0 0.0 0.00 0.00 0.00 93 1019.5
20180820075653 57 121 0.0 0.0 0.00 0.00 0.00 93 1019.5
20180820075152 57 121 0.0 0.0 0.00 0.00 0.00 93 1019.5
20180820074653 57 121 0.0 0.0 0.00 0.00 0.00 93 1019.4
20180820074151 57 121 0.0 0.0 0.00 0.00 0.00 92 1019.4
20180820073650 58 121 0.0 0.0 0.00 0.00 0.00 92 1019.4
20180820073149 58 121 0.0 0.0 0.00 0.00 0.00 93 1019.4
20180820072647 58 121 0.0 0.0 0.00 0.00 0.00 93 1019.4
20180820072147 58 121 0.0 0.0 0.00 0.00 0.00 94 1019.4
20180820071646 58 121 0.0 0.0 0.00 0.00 0.00 94 1019.4
20180820071145 58 121 0.0 0.0 0.00 0.00 0.00 93 1019.4
20180820070645 57 121 0.0 0.0 0.00 0.00 0.00 93 1019.4
20180820070142 57 121 0.0 0.0 0.00 0.00 0.00 92 1019.4
20180820065641 57 121 0.0 0.0 0.00 0.00 0.00 91 1019.4
20180820065141 58 121 0.0 0.0 0.00 0.00 0.00 91 1019.4
20180820064638 58 121 0.0 0.0 0.00 0.00 0.00 92 1019.4
20180820064137 58 121 0.0 0.0 0.00 0.00 0.00 92 1019.4
20180820063636 58 121 0.0 0.0 0.00 0.00 0.00 92 1019.4
20180820063135 58 121 0.0 0.0 0.00 0.00 0.00 92 1019.4
20180820062634 58 121 0.0 0.0 0.00 0.00 0.00 92 1019.4
20180820062131 58 121 0.0 0.0 0.00 0.00 0.00 92 1019.4